This is the latest recevied weather packets stored in our database for station/object N4MGC. If no packets are shown the sender has not sent any weather packets the latest 10 day(s).
| Time | Temp. | Humidity | Pressure | Rain* | Wind** | Luminosity | Snow |
|---|---|---|---|---|---|---|---|
| 1777566071 | 19.44° C | 66% | 1015 hPa | 0 mm | - | 651 W/m² | - |
| 1777565766 | 19.44° C | 66% | 1014.9 hPa | 0 mm | - | 708 W/m² | - |
| 1777565463 | 18.33° C | 70% | 1014.7 hPa | 0 mm | - | 697 W/m² | - |
| 1777565159 | 18.89° C | 68% | 1015.1 hPa | 0 mm | - | 613 W/m² | - |
| 1777564855 | 18.89° C | 73% | 1014.8 hPa | 0 mm | - | 609 W/m² | - |
| 1777564550 | 18.89° C | 68% | 1014.9 hPa | 0 mm | - | 606 W/m² | - |
| 1777563338 | 18.33° C | 69% | 1014.6 hPa | 0 mm | - | 725 W/m² | - |
| 1777563035 | 18.33° C | 70% | 1014.9 hPa | 0 mm | - | 675 W/m² | - |
| 1777562730 | 17.78° C | 72% | 1014.8 hPa | 0 mm | - | 740 W/m² | - |
| 1777561824 | 16.67° C | 75% | 1014.8 hPa | 0 mm | - | 688 W/m² | - |
| 1777561216 | 16.67° C | 74% | 1014.8 hPa | 0 mm | - | 235 W/m² | - |
| 1777560915 | 16.67° C | 76% | 1014.6 hPa | 0 mm | - | 216 W/m² | - |
| 1777559400 | 16.11° C | 76% | 1014.6 hPa | 0 mm | - | 235 W/m² | - |
| 1777558184 | 15.56° C | 82% | 1014.7 hPa | 0 mm | - | 220 W/m² | - |
| 1777557880 | 15° C | 83% | 1014.5 hPa | 0 mm | - | 176 W/m² | - |
| 1777557273 | 15° C | 87% | 1014.3 hPa | 0 mm | - | 144 W/m² | - |
| 1777556665 | 15° C | 88% | 1014.5 hPa | 0 mm | - | 99 W/m² | - |
| 1777556057 | 14.44° C | 90% | 1014.2 hPa | 0 mm | - | 95 W/m² | - |
| 1777555756 | 14.44° C | 92% | 1014.2 hPa | 0 mm | - | 78 W/m² | - |
| 1777555453 | 13.89° C | 91% | 1014 hPa | 0 mm | - | 102 W/m² | - |
| 1777554240 | 13.89° C | 94% | 1014.5 hPa | 0 mm | - | 90 W/m² | - |
| 1777553330 | 13.33° C | 97% | 1014.2 hPa | 0 mm | - | 68 W/m² | - |
| 1777551812 | 12.78° C | 99% | 1014 hPa | 0 mm | - | 59 W/m² | - |
| 1777549081 | 13.33° C | 99% | 1013.1 hPa | 0 mm | - | 12 W/m² | - |
| 1777548474 | 13.33° C | 99% | 1013.3 hPa | 0 mm | - | 9 W/m² | - |
* Rain latest hour (hover to see other rain measurements)
** Current wind speed in m/s (hover to see current wind gust speed)